Previsão horária em Aarschot

Hoje, 29 Setembro, Terça-feira

Tempo Temperatura Precipitação Vento Pressão Humidade
00:00 +14°C° 0 mm 4 m/s 756 mmHg 96%
01:00 +14°C° 0.3 mm 4 m/s 756 mmHg 95%
02:00 +14°C° 0.3 mm 4 m/s 756 mmHg 94%
03:00 +13°C° 0.3 mm 4 m/s 756 mmHg 93%
04:00 +13°C° 0.1 mm 3 m/s 756 mmHg 91%
05:00 +12°C° 0.1 mm 3 m/s 757 mmHg 88%
06:00 +12°C° 0.1 mm 3 m/s 757 mmHg 86%
07:00 +13°C° 0 mm 3 m/s 757 mmHg 82%
08:00 +14°C° 0 mm 3 m/s 757 mmHg 78%
09:00 +14°C° 0 mm 3 m/s 758 mmHg 75%
10:00 +17°C° 0 mm 3 m/s 758 mmHg 70%
11:00 +18°C° 0 mm 3 m/s 758 mmHg 66%
12:00 +20°C° 0 mm 3 m/s 758 mmHg 62%
13:00 +20°C° 0 mm 3 m/s 758 mmHg 65%
14:00 +20°C° 0 mm 3 m/s 758 mmHg 68%
15:00 +20°C° 0 mm 3 m/s 757 mmHg 72%
16:00 +19°C° 0.6 mm 3 m/s 758 mmHg 78%
17:00 +18°C° 0.6 mm 3 m/s 758 mmHg 85%
18:00 +17°C° 0.6 mm 3 m/s 758 mmHg 92%
19:00 +16°C° 0.3 mm 3 m/s 758 mmHg 92%
20:00 +14°C° 0.3 mm 3 m/s 758 mmHg 92%
21:00 +14°C° 0.3 mm 3 m/s 758 mmHg 93%
22:00 +13°C° 0 mm 3 m/s 758 mmHg 93%
23:00 +13°C° 0 mm 3 m/s 758 mmHg 93%

Amanhã, 30 Setembro, Quarta-feira

Tempo Temperatura Precipitação Vento Pressão Humidade
00:00 +12°C° 0 mm 3 m/s 758 mmHg 94%
01:00 +13°C° 0 mm 2 m/s 757 mmHg 94%
02:00 +13°C° 0 mm 2 m/s 757 mmHg 94%
03:00 +13°C° 0 mm 2 m/s 757 mmHg 95%
04:00 +12°C° 0 mm 3 m/s 757 mmHg 95%
05:00 +13°C° 0 mm 3 m/s 756 mmHg 95%
06:00 +13°C° 0 mm 3 m/s 756 mmHg 95%
07:00 +14°C° 0.3 mm 3 m/s 756 mmHg 93%
08:00 +14°C° 0.3 mm 3 m/s 756 mmHg 91%
09:00 +15°C° 0.3 mm 4 m/s 756 mmHg 89%
10:00 +17°C° 0.1 mm 4 m/s 756 mmHg 84%
11:00 +19°C° 0.1 mm 4 m/s 755 mmHg 78%
12:00 +20°C° 0.1 mm 5 m/s 755 mmHg 73%
13:00 +20°C° 0.5 mm 5 m/s 754 mmHg 74%
14:00 +19°C° 0.5 mm 4 m/s 754 mmHg 76%
15:00 +19°C° 0.5 mm 4 m/s 753 mmHg 77%
16:00 +18°C° 0.2 mm 3 m/s 753 mmHg 81%
17:00 +17°C° 0.2 mm 3 m/s 752 mmHg 85%
18:00 +16°C° 0.2 mm 3 m/s 752 mmHg 89%
19:00 +15°C° 0.1 mm 4 m/s 752 mmHg 88%
20:00 +15°C° 0.1 mm 4 m/s 751 mmHg 88%
21:00 +15°C° 0.1 mm 4 m/s 751 mmHg 88%
22:00 +14°C° 0 mm 4 m/s 750 mmHg 87%
23:00 +14°C° 0 mm 4 m/s 750 mmHg 87%

Depois de amanhã, 1 Outubro, Quinta-feira

Tempo Temperatura Precipitação Vento Pressão Humidade
00:00 +14°C° 0 mm 5 m/s 749 mmHg 86%
01:00 +14°C° 0.1 mm 4 m/s 749 mmHg 87%
02:00 +14°C° 0.1 mm 4 m/s 748 mmHg 87%
03:00 +14°C° 0.1 mm 4 m/s 748 mmHg 87%
04:00 +13°C° 0.3 mm 5 m/s 747 mmHg 89%
05:00 +13°C° 0.3 mm 5 m/s 747 mmHg 90%
06:00 +13°C° 0.3 mm 5 m/s 747 mmHg 91%
07:00 +13°C° 0.8 mm 5 m/s 747 mmHg 90%
08:00 +13°C° 0.8 mm 4 m/s 747 mmHg 89%
09:00 +13°C° 0.8 mm 4 m/s 747 mmHg 88%
10:00 +14°C° 0.1 mm 4 m/s 747 mmHg 81%
11:00 +15°C° 0.1 mm 4 m/s 747 mmHg 75%
12:00 +16°C° 0.1 mm 5 m/s 747 mmHg 68%
13:00 +16°C° 0.3 mm 5 m/s 747 mmHg 69%
14:00 +15°C° 0.3 mm 5 m/s 747 mmHg 71%
15:00 +14°C° 0.3 mm 5 m/s 747 mmHg 73%
16:00 +13°C° 0 mm 4 m/s 747 mmHg 75%
17:00 +12°C° 0 mm 3 m/s 747 mmHg 78%
18:00 +12°C° 0 mm 3 m/s 747 mmHg 81%
19:00 +11°C° 0 mm 3 m/s 747 mmHg 82%
20:00 +11°C° 0 mm 3 m/s 747 mmHg 83%
21:00 +10°C° 0 mm 3 m/s 747 mmHg 84%
22:00 +10°C° 0 mm 3 m/s 747 mmHg 84%
23:00 +10°C° 0 mm 3 m/s 746 mmHg 84%

2 Outubro, Sexta-feira

Tempo Temperatura Precipitação Vento Pressão Humidade
00:00 +10°C° 0 mm 3 m/s 746 mmHg 84%
01:00 +10°C° 0 mm 3 m/s 745 mmHg 84%
02:00 +10°C° 0 mm 4 m/s 745 mmHg 84%
03:00 +10°C° 0 mm 4 m/s 744 mmHg 84%
04:00 +10°C° 0 mm 4 m/s 744 mmHg 83%
05:00 +9°C° 0 mm 5 m/s 743 mmHg 82%
06:00 +9°C° 0 mm 5 m/s 743 mmHg 81%
07:00 +11°C° 0 mm 6 m/s 742 mmHg 77%
08:00 +13°C° 0 mm 6 m/s 742 mmHg 73%
09:00 +15°C° 0 mm 7 m/s 741 mmHg 68%
10:00 +14°C° 0.2 mm 6 m/s 741 mmHg 72%
11:00 +14°C° 0.2 mm 5 m/s 740 mmHg 77%
12:00 +14°C° 0.2 mm 3 m/s 740 mmHg 81%
13:00 +15°C° 0 mm 4 m/s 740 mmHg 77%
14:00 +16°C° 0 mm 5 m/s 739 mmHg 73%
15:00 +17°C° 0 mm 6 m/s 739 mmHg 69%
16:00 +16°C° 1.3 mm 5 m/s 739 mmHg 77%
17:00 +15°C° 1.3 mm 4 m/s 739 mmHg 84%
18:00 +14°C° 1.3 mm 3 m/s 739 mmHg 92%
19:00 +14°C° 0.6 mm 4 m/s 739 mmHg 89%
20:00 +14°C° 0.6 mm 4 m/s 739 mmHg 87%
21:00 +14°C° 0.6 mm 5 m/s 739 mmHg 84%
22:00 +14°C° 0 mm 4 m/s 739 mmHg 85%
23:00 +14°C° 0 mm 4 m/s 739 mmHg 85%

3 Outubro, Sábado

Tempo Temperatura Precipitação Vento Pressão Humidade
00:00 +13°C° 0 mm 3 m/s 739 mmHg 85%
01:00 +13°C° 0 mm 3 m/s 739 mmHg 87%
02:00 +12°C° 0 mm 4 m/s 739 mmHg 88%
03:00 +11°C° 0 mm 4 m/s 740 mmHg 90%
04:00 +11°C° 0.4 mm 3 m/s 740 mmHg 91%
05:00 +12°C° 0.4 mm 2 m/s 740 mmHg 92%
06:00 +12°C° 0.4 mm 1 m/s 741 mmHg 94%
07:00 +12°C° 0.4 mm 2 m/s 741 mmHg 93%
08:00 +12°C° 0.4 mm 2 m/s 742 mmHg 92%
09:00 +11°C° 0.4 mm 3 m/s 742 mmHg 91%
10:00 +12°C° 0.2 mm 2 m/s 742 mmHg 87%
11:00 +13°C° 0.2 mm 2 m/s 742 mmHg 84%
12:00 +13°C° 0.2 mm 1 m/s 742 mmHg 80%
13:00 +14°C° 0.1 mm 2 m/s 742 mmHg 78%
14:00 +14°C° 0.1 mm 2 m/s 742 mmHg 77%
15:00 +14°C° 0.1 mm 2 m/s 743 mmHg 75%
16:00 +13°C° 0.1 mm 2 m/s 743 mmHg 79%
17:00 +13°C° 0.1 mm 2 m/s 743 mmHg 83%
18:00 +12°C° 0.1 mm 2 m/s 743 mmHg 87%
19:00 +10°C° 0 mm 2 m/s 743 mmHg 88%
20:00 +9°C° 0 mm 2 m/s 743 mmHg 89%
21:00 +8°C° 0 mm 2 m/s 743 mmHg 90%
22:00 +8°C° 0 mm 2 m/s 743 mmHg 89%
23:00 +8°C° 0 mm 2 m/s 743 mmHg 89%

4 Outubro, Domingo

Tempo Temperatura Precipitação Vento Pressão Humidade
00:00 +7°C° 0 mm 2 m/s 742 mmHg 89%
01:00 +7°C° 0 mm 3 m/s 742 mmHg 88%
02:00 +7°C° 0 mm 3 m/s 741 mmHg 88%
03:00 +7°C° 0 mm 3 m/s 741 mmHg 87%
04:00 +8°C° 0 mm 3 m/s 741 mmHg 87%
05:00 +8°C° 0 mm 3 m/s 741 mmHg 86%
06:00 +7°C° 0 mm 4 m/s 741 mmHg 86%
07:00 +8°C° 0 mm 4 m/s 741 mmHg 82%
08:00 +10°C° 0 mm 5 m/s 741 mmHg 78%
09:00 +11°C° 0 mm 6 m/s 741 mmHg 74%
10:00 +11°C° 0 mm 6 m/s 741 mmHg 72%
11:00 +11°C° 0 mm 7 m/s 741 mmHg 71%
12:00 +12°C° 0 mm 8 m/s 741 mmHg 69%
13:00 +11°C° 0 mm 7 m/s 741 mmHg 71%
14:00 +11°C° 0 mm 7 m/s 741 mmHg 72%
15:00 +11°C° 0 mm 6 m/s 741 mmHg 74%
16:00 +12°C° 0 mm 5 m/s 742 mmHg 76%
17:00 +10°C° 0 mm 5 m/s 742 mmHg 78%
18:00 +10°C° 0 mm 4 m/s 742 mmHg 81%
19:00 +10°C° 0.5 mm 4 m/s 742 mmHg 84%
20:00 +10°C° 0.5 mm 4 m/s 742 mmHg 88%
21:00 +11°C° 0.5 mm 4 m/s 742 mmHg 91%
22:00 +11°C° 1.2 mm 4 m/s 742 mmHg 91%
23:00 +10°C° 1.2 mm 5 m/s 742 mmHg 90%
Mostrar mais